Date String (YYYY-MM-DD hh:mm:ss) UTC,Instrument flags,absolute air pressure of the measurement (hPa),sample flow rate (lpm),inlet stack bypass flow (lpm),air temperature of the measurement (°C),ambient temperature measured by the external sensor (°C),aerosol sample conditioner tube jacket temperature (°C),OPC LED temperature (°C),internal box temperature (°C),relative humidity of the measurement (%),span deviation,mass concentration of particles derived from Lorenz-Mie calculation of OPC scattering (μg/m³),mass concentration of particles derived from Lorenz-Mie calculation of OPC scattering (μg/m³),mass concentration of particles derived from Lorenz-Mie calculation of OPC scattering (μg/m³)
DateTimeUTC,F1_M11,P_M11,Q1_M11,Q2_M11,T1_M11,T2_M11,T3_M11,T4_M11,T5_M11,U1_M11,ZSPAN_M11,X0_M11,X2_M11,X1_M11
2023-06-27 02:00:00,SystemResetWarning,0827.5,5.01,000.00,029.4,024.5,000.0,037.7,031.0,25.6,0000.0,0020.61,0005.89,0004.50
2023-06-27 02:01:00,SystemResetWarning,0827.5,5.01,000.00,029.3,024.5,000.0,037.6,030.8,25.7,0000.0,0019.50,0005.95,0004.49
2023-06-27 02:02:00,SystemResetWarning,0827.6,4.99,000.00,029.2,024.9,000.0,037.6,030.5,25.8,0000.0,0018.57,0005.96,0004.49
2023-06-27 02:03:00,SystemResetWarning,0827.6,5.00,000.00,029.2,025.5,000.0,037.6,030.6,25.7,0000.0,0017.78,0005.98,0004.49
2023-06-27 02:04:00,SystemResetWarning,0827.7,5.00,000.00,029.2,026.0,000.0,037.7,030.7,25.5,0000.0,0018.80,0006.07,0004.49
2023-06-27 02:05:00,SystemResetWarning,0827.7,5.00,000.00,029.2,026.5,000.0,037.7,030.8,25.7,0000.0,0019.85,0006.13,0004.49
2023-06-27 02:06:00,SystemResetWarning,0827.7,5.00,000.00,029.2,027.0,000.0,037.7,030.9,25.5,0000.0,0019.47,0006.14,0004.49
2023-06-27 02:07:00,SystemResetWarning,0827.7,5.00,000.00,029.3,027.4,000.0,037.7,031.0,25.4,0000.0,0019.73,0006.16,0004.50
2023-06-27 02:08:00,SystemResetWarning,0827.7,4.99,000.00,029.3,027.7,000.0,037.7,031.1,25.5,0000.0,0020.87,0006.10,0004.49
2023-06-27 02:09:00,SystemResetWarning,0827.7,4.99,000.00,029.4,027.7,000.0,037.8,031.1,25.5,0000.0,0020.14,0006.14,0004.49
2023-06-27 02:10:00,SystemResetWarning,0827.7,5.01,000.00,029.4,026.1,000.0,037.7,031.1,25.6,0000.0,0021.11,0006.12,0004.49
2023-06-27 02:11:00,SystemResetWarning,0827.7,5.00,000.00,029.4,024.7,000.0,037.7,030.9,25.7,0000.0,0021.38,0006.07,0004.49
2023-06-27 02:12:00,SystemResetWarning,0827.7,5.02,000.00,029.3,024.5,000.0,037.6,030.8,25.9,0000.0,0021.81,0006.02,0004.49
2023-06-27 02:13:00,SystemResetWarning,0827.7,5.00,000.00,029.2,024.8,000.0,037.6,030.5,25.9,0000.0,0022.48,0006.00,0004.47
2023-06-27 02:14:00,SystemResetWarning,0827.7,5.00,000.00,029.1,025.4,000.0,037.6,030.5,25.9,0000.0,0022.72,0006.03,0004.46
2023-06-27 02:15:00,SystemResetWarning,0827.7,5.00,000.00,029.1,025.9,000.0,037.6,030.6,25.9,0000.0,0022.17,0005.99,0004.44
2023-06-27 02:16:00,SystemResetWarning,0827.7,5.00,000.00,029.2,026.4,000.0,037.7,030.8,26.5,0000.0,0022.21,0005.87,0004.42
2023-06-27 02:17:00,SystemResetWarning,0827.7,5.00,000.00,029.2,026.8,000.0,037.7,030.9,26.6,0000.0,0022.51,0005.82,0004.42
2023-06-27 02:18:00,SystemResetWarning,0827.7,4.99,000.00,029.2,027.2,000.0,037.7,030.9,26.6,0000.0,0022.24,0005.78,0004.41
2023-06-27 02:19:00,SystemResetWarning,0827.7,4.99,000.00,029.3,027.6,000.0,037.7,031.0,26.7,0000.0,0022.33,0005.80,0004.40
2023-06-27 02:20:00,SystemResetWarning,0827.7,5.00,000.00,029.3,027.8,000.0,037.7,031.1,27.9,0000.0,0022.14,0005.80,0004.40
2023-06-27 02:21:00,SystemResetWarning,0827.7,5.01,000.00,029.4,028.0,000.0,037.8,031.2,28.3,0000.0,0020.85,0005.80,0004.39
2023-06-27 02:22:00,SystemResetWarning,0827.7,5.00,000.00,029.4,026.8,000.0,037.7,031.2,27.6,0000.0,0021.48,0005.83,0004.40
2023-06-27 02:23:00,SystemResetWarning,0827.7,5.00,000.00,029.4,025.0,000.0,037.7,030.9,27.3,0000.0,0021.63,0005.84,0004.39
2023-06-27 02:24:00,SystemResetWarning,0827.7,5.02,000.00,029.3,024.5,000.0,037.6,030.9,26.8,0000.0,0021.86,0005.83,0004.39
2023-06-27 02:25:00,SystemResetWarning,0827.7,5.00,000.00,029.2,024.7,000.0,037.6,030.5,26.7,0000.0,0022.14,0005.79,0004.40
2023-06-27 02:26:00,SystemResetWarning,0827.7,5.00,000.00,029.2,025.2,000.0,037.7,030.5,27.0,0000.0,0021.54,0005.77,0004.40
2023-06-27 02:27:00,SystemResetWarning,0827.7,5.00,000.00,029.1,025.7,000.0,037.7,030.6,27.4,0000.0,0020.89,0005.79,0004.40
2023-06-27 02:28:00,SystemResetWarning,0827.7,5.00,000.00,029.2,026.3,000.0,037.7,030.7,27.0,0000.0,0021.15,0005.82,0004.40
2023-06-27 02:29:00,SystemResetWarning,0827.7,5.00,000.00,029.2,026.7,000.0,037.7,030.8,26.7,0000.0,0022.21,0005.86,0004.40
2023-06-27 02:30:00,SystemResetWarning,0827.7,5.00,000.00,029.2,027.1,000.0,037.7,030.9,26.3,0000.0,0022.19,0005.88,0004.39
2023-06-27 02:31:00,SystemResetWarning,0827.7,5.00,000.00,029.3,027.4,000.0,037.7,031.0,26.1,0000.0,0021.98,0005.86,0004.39
2023-06-27 02:32:00,SystemResetWarning,0827.7,5.00,000.00,029.3,027.7,000.0,037.7,031.0,26.1,0000.0,0021.60,0005.83,0004.37
2023-06-27 02:33:00,SystemResetWarning,0827.7,5.01,000.00,029.4,027.9,000.0,037.8,031.1,25.9,0000.0,0021.73,0005.79,0004.34
2023-06-27 02:34:00,SystemResetWarning,0827.7,4.99,000.00,029.4,027.3,000.0,037.8,031.1,26.4,0000.0,0021.85,0005.72,0004.32
2023-06-27 02:35:00,SystemResetWarning,0827.7,4.99,000.00,029.4,025.3,000.0,037.7,031.0,26.7,0000.0,0021.58,0005.67,0004.30
2023-06-27 02:36:00,SystemResetWarning,0827.7,5.01,000.00,029.3,024.4,000.0,037.7,031.0,26.5,0000.0,0020.54,0005.70,0004.29
2023-06-27 02:37:00,SystemResetWarning,0827.7,5.01,000.00,029.3,024.5,000.0,037.6,030.6,26.4,0000.0,0020.69,0005.67,0004.27
2023-06-27 02:38:00,SystemResetWarning,0827.7,5.00,000.00,029.2,024.9,000.0,037.6,030.5,26.6,0000.0,0021.02,0005.70,0004.26
2023-06-27 02:39:00,SystemResetWarning,0827.7,5.01,000.00,029.1,025.5,000.0,037.7,030.5,26.6,0000.0,0020.43,0005.63,0004.24
2023-06-27 02:40:00,SystemResetWarning,0827.7,4.99,000.00,029.1,026.0,000.0,037.7,030.6,26.8,0000.0,0019.63,0005.53,0004.21
2023-06-27 02:41:00,SystemResetWarning,0827.7,5.00,000.00,029.2,026.5,000.0,037.7,030.7,27.0,0000.0,0019.69,0005.47,0004.19
2023-06-27 02:42:00,SystemResetWarning,0827.7,5.00,000.00,029.2,026.9,000.0,037.7,030.8,26.8,0000.0,0019.40,0005.41,0004.18
2023-06-27 02:43:00,SystemResetWarning,0827.7,4.99,000.00,029.2,027.2,000.0,037.7,030.9,26.8,0000.0,0018.70,0005.40,0004.18
2023-06-27 02:44:00,SystemResetWarning,0827.7,5.00,000.00,029.3,027.5,000.0,037.7,030.9,26.7,0000.0,0016.93,0005.41,0004.17
2023-06-27 02:45:00,SystemResetWarning,0827.7,4.99,000.00,029.3,027.8,000.0,037.7,031.0,26.6,0000.0,0016.04,0005.42,0004.17
2023-06-27 02:46:00,SystemResetWarning,0827.7,5.00,000.00,029.4,028.0,000.0,037.8,031.1,26.5,0000.0,0015.49,0005.40,0004.17
2023-06-27 02:47:00,SystemResetWarning,0827.7,4.99,000.00,029.4,026.8,000.0,037.7,031.0,26.4,0000.0,0015.71,0005.39,0004.17
2023-06-27 02:48:00,SystemResetWarning,0827.7,5.00,000.00,029.3,024.9,000.0,037.7,030.8,26.6,0000.0,0016.71,0005.40,0004.16
2023-06-27 02:49:00,SystemResetWarning,0827.7,5.01,000.00,029.3,024.2,000.0,037.6,030.8,26.7,0000.0,0016.64,0005.38,0004.17
2023-06-27 02:50:00,SystemResetWarning,0827.6,5.01,000.00,029.2,024.4,000.0,037.6,030.5,27.2,0000.0,0016.52,0005.36,0004.17
2023-06-27 02:51:00,SystemResetWarning,0827.6,4.99,000.00,029.1,024.9,000.0,037.6,030.4,27.1,0000.0,0017.01,0005.41,0004.17
2023-06-27 02:52:00,SystemResetWarning,0827.6,5.00,000.00,029.1,025.5,000.0,037.6,030.4,27.4,0000.0,0016.36,0005.41,0004.17
2023-06-27 02:53:00,SystemResetWarning,0827.6,4.99,000.00,029.1,026.0,000.0,037.6,030.6,27.6,0000.0,0017.08,0005.39,0004.18
2023-06-27 02:54:00,SystemResetWarning,0827.6,5.00,000.00,029.1,026.5,000.0,037.6,030.7,28.1,0000.0,0016.71,0005.39,0004.18
2023-06-27 02:55:00,SystemResetWarning,0827.6,5.00,000.00,029.1,026.8,000.0,037.6,030.7,28.2,0000.0,0017.06,0005.38,0004.18
2023-06-27 02:56:00,SystemResetWarning,0827.6,5.00,000.00,029.2,027.2,000.0,037.7,030.8,28.1,0000.0,0017.90,0005.38,0004.18
2023-06-27 02:57:00,SystemResetWarning,0827.6,4.99,000.00,029.2,027.5,000.0,037.7,030.9,28.3,0000.0,0019.12,0005.36,0004.19
2023-06-27 02:58:00,SystemResetWarning,0827.7,5.00,000.00,029.3,027.7,000.0,037.7,031.0,28.2,0000.0,0019.66,0005.37,0004.19
2023-06-27 02:59:00,SystemResetWarning,0827.6,5.02,000.00,029.3,027.9,000.0,037.7,031.0,28.0,0000.0,0019.02,0005.31,0004.19
